Time,TemperatureF,DewpointF,PressureIn,WindDirection,WindDirectionDegrees,WindSpeedMPH,WindSpeedGustMPH,Humidity,HourlyPrecipIn,Conditions,Clouds,dailyrainin,SoftwareType,DateUTC
2013-11-04 00:02:00,31.0,30.0,-100.00,SSW,195,1.0,2.0,97,0.00,,,0.00,,2013-11-04 09:02:00,
2013-11-04 00:12:00,31.0,30.0,-100.00,SSW,195,1.0,2.0,97,0.00,,,0.00,,2013-11-04 09:12:00,
2013-11-04 00:21:00,30.0,30.0,-100.00,South,185,0.0,2.0,97,0.00,,,0.00,,2013-11-04 09:21:00,
2013-11-04 00:33:00,30.0,30.0,-100.00,South,185,0.0,2.0,97,0.00,,,0.00,,2013-11-04 09:33:00,
2013-11-04 00:43:00,30.0,30.0,-100.00,South,185,0.0,2.0,97,0.00,,,0.00,,2013-11-04 09:43:00,
2013-11-04 00:53:00,30.0,30.0,-100.00,South,180,1.0,2.0,97,0.00,,,0.00,,2013-11-04 09:53:00,
2013-11-04 01:03:00,30.0,30.0,-100.00,South,180,1.0,2.0,97,0.00,,,0.00,,2013-11-04 10:03:00,
2013-11-04 01:12:00,30.0,30.0,-100.00,South,180,1.0,2.0,97,0.00,,,0.00,,2013-11-04 10:12:00,
2013-11-04 01:23:00,30.0,29.0,-100.00,SSW,200,1.0,1.0,97,0.00,,,0.00,,2013-11-04 10:23:00,
2013-11-04 01:33:00,30.0,29.0,-100.00,SSW,200,1.0,1.0,97,0.00,,,0.00,,2013-11-04 10:33:00,
2013-11-04 01:42:00,30.0,29.0,-100.00,SSW,200,1.0,1.0,97,0.00,,,0.00,,2013-11-04 10:42:00,
2013-11-04 01:52:00,30.0,29.0,-100.00,SSW,200,2.0,3.0,97,0.00,,,0.00,,2013-11-04 10:52:00,
2013-11-04 02:02:00,30.0,29.0,-100.00,SSW,200,2.0,3.0,97,0.00,,,0.00,,2013-11-04 11:02:00,
2013-11-04 02:12:00,30.0,29.0,-100.00,SSW,200,2.0,3.0,97,0.00,,,0.00,,2013-11-04 11:12:00,
2013-11-04 02:22:00,29.0,29.0,-100.00,WSW,255,2.0,3.0,97,0.00,,,0.00,,2013-11-04 11:22:00,
2013-11-04 02:32:00,29.0,29.0,-100.00,WSW,255,2.0,3.0,97,0.00,,,0.00,,2013-11-04 11:32:00,
2013-11-04 02:42:00,29.0,29.0,-100.00,WSW,255,2.0,3.0,97,0.00,,,0.00,,2013-11-04 11:42:00,
2013-11-04 02:52:00,29.0,28.0,-100.00,SSW,205,1.0,2.0,97,0.00,,,0.00,,2013-11-04 11:52:00,
2013-11-04 03:02:00,29.0,28.0,-100.00,SSW,205,1.0,2.0,97,0.00,,,0.00,,2013-11-04 12:02:00,
2013-11-04 03:11:00,29.0,28.0,-100.00,SSW,205,1.0,2.0,97,0.00,,,0.00,,2013-11-04 12:11:00,
2013-11-04 03:22:00,29.0,28.0,-100.00,West,280,1.0,4.0,97,0.00,,,0.00,,2013-11-04 12:22:00,
2013-11-04 03:32:00,29.0,28.0,-100.00,West,280,1.0,4.0,97,0.00,,,0.00,,2013-11-04 12:32:00,
2013-11-04 03:42:00,29.0,28.0,-100.00,West,280,1.0,4.0,97,0.00,,,0.00,,2013-11-04 12:42:00,
2013-11-04 03:52:00,29.0,28.0,-100.00,South,190,0.0,2.0,97,0.00,,,0.00,,2013-11-04 12:52:00,
2013-11-04 04:01:00,29.0,28.0,-100.00,South,190,0.0,2.0,97,0.00,,,0.00,,2013-11-04 13:01:00,
2013-11-04 04:11:00,29.0,28.0,-100.00,South,190,0.0,2.0,97,0.00,,,0.00,,2013-11-04 13:11:00,
2013-11-04 04:21:00,29.0,28.0,-100.00,WSW,245,2.0,4.0,97,0.00,,,0.00,,2013-11-04 13:21:00,
2013-11-04 04:32:00,29.0,28.0,-100.00,WSW,245,2.0,4.0,97,0.00,,,0.00,,2013-11-04 13:32:00,
2013-11-04 04:42:00,29.0,28.0,-100.00,WSW,245,2.0,4.0,97,0.00,,,0.00,,2013-11-04 13:42:00,
2013-11-04 04:52:00,29.0,28.0,-100.00,West,280,0.0,1.0,97,0.00,,,0.00,,2013-11-04 13:52:00,
2013-11-04 05:02:00,29.0,28.0,-100.00,West,280,0.0,1.0,97,0.00,,,0.00,,2013-11-04 14:02:00,
2013-11-04 05:11:00,29.0,28.0,-100.00,West,280,0.0,1.0,97,0.00,,,0.00,,2013-11-04 14:11:00,
2013-11-04 05:22:00,29.0,28.0,-100.00,SSW,205,1.0,2.0,97,0.00,,,0.00,,2013-11-04 14:22:00,
2013-11-04 05:32:00,29.0,28.0,-100.00,SSW,205,1.0,2.0,97,0.00,,,0.00,,2013-11-04 14:32:00,
2013-11-04 05:42:00,29.0,28.0,-100.00,SSW,205,1.0,2.0,97,0.00,,,0.00,,2013-11-04 14:42:00,
2013-11-04 05:52:00,29.0,28.0,-100.00,South,190,1.0,1.0,97,0.00,,,0.00,,2013-11-04 14:52:00,
2013-11-04 06:02:00,29.0,28.0,-100.00,South,190,1.0,1.0,97,0.00,,,0.00,,2013-11-04 15:02:00,
2013-11-04 06:11:00,29.0,28.0,-100.00,South,190,1.0,1.0,97,0.00,,,0.00,,2013-11-04 15:11:00,
2013-11-04 06:21:00,29.0,28.0,-100.00,North,355,0.0,1.0,97,0.00,,,0.00,,2013-11-04 15:21:00,
2013-11-04 06:32:00,29.0,28.0,-100.00,North,355,0.0,1.0,97,0.00,,,0.00,,2013-11-04 15:32:00,
2013-11-04 06:42:00,29.0,28.0,-100.00,North,355,0.0,1.0,97,0.00,,,0.00,,2013-11-04 15:42:00,
2013-11-04 06:52:00,29.0,28.0,-100.00,NNE,20,1.0,2.0,97,0.00,,,0.00,,2013-11-04 15:52:00,
2013-11-04 07:03:00,29.0,28.0,-100.00,NNE,20,1.0,2.0,97,0.00,,,0.00,,2013-11-04 16:03:00,
2013-11-04 07:12:00,29.0,28.0,-100.00,NNE,20,1.0,2.0,97,0.00,,,0.00,,2013-11-04 16:12:00,
2013-11-04 07:23:00,29.0,29.0,-100.00,NW,325,0.0,1.0,97,0.00,,,0.00,,2013-11-04 16:23:00,
2013-11-04 07:33:00,29.0,29.0,-100.00,NW,325,0.0,1.0,97,0.00,,,0.00,,2013-11-04 16:33:00,
2013-11-04 07:43:00,29.0,29.0,-100.00,NW,325,0.0,1.0,97,0.00,,,0.00,,2013-11-04 16:43:00,
2013-11-04 07:53:00,29.0,29.0,-100.00,NNE,30,0.0,1.0,97,0.00,,,0.00,,2013-11-04 16:53:00,
2013-11-04 08:03:00,29.0,29.0,-100.00,NNE,30,0.0,1.0,97,0.00,,,0.00,,2013-11-04 17:03:00,
2013-11-04 08:12:00,29.0,29.0,-100.00,NNE,30,0.0,1.0,97,0.00,,,0.00,,2013-11-04 17:12:00,
2013-11-04 08:22:00,30.0,29.0,-100.00,NW,315,0.0,1.0,97,0.00,,,0.00,,2013-11-04 17:22:00,
2013-11-04 08:33:00,30.0,29.0,-100.00,NW,315,0.0,1.0,97,0.00,,,0.00,,2013-11-04 17:33:00,
2013-11-04 08:42:00,30.0,29.0,-100.00,NW,315,0.0,1.0,97,0.00,,,0.00,,2013-11-04 17:42:00,
2013-11-04 08:53:00,30.0,29.0,-100.00,East,85,0.0,0.0,97,0.00,,,0.00,,2013-11-04 17:53:00,
2013-11-04 09:01:00,30.0,29.0,-100.00,East,85,0.0,0.0,97,0.00,,,0.00,,2013-11-04 18:01:00,
2013-11-04 09:12:00,30.0,29.0,-100.00,East,85,0.0,0.0,97,0.00,,,0.00,,2013-11-04 18:12:00,
2013-11-04 09:23:00,30.0,29.0,-100.00,North,0,0.0,1.0,97,0.00,,,0.00,,2013-11-04 18:23:00,
2013-11-04 09:32:00,30.0,29.0,-100.00,North,0,0.0,1.0,97,0.00,,,0.00,,2013-11-04 18:32:00,
2013-11-04 09:42:00,30.0,29.0,-100.00,North,0,0.0,1.0,97,0.00,,,0.00,,2013-11-04 18:42:00,
2013-11-04 09:52:00,30.0,30.0,-100.00,NNE,15,0.0,1.0,97,0.00,,,0.00,,2013-11-04 18:52:00,
2013-11-04 10:01:00,30.0,30.0,-100.00,NNE,15,0.0,1.0,97,0.00,,,0.00,,2013-11-04 19:01:00,
2013-11-04 10:12:00,30.0,30.0,-100.00,NNE,15,0.0,1.0,97,0.00,,,0.00,,2013-11-04 19:12:00,
2013-11-04 10:22:00,31.0,30.0,-100.00,SSW,195,0.0,1.0,97,0.00,,,0.00,,2013-11-04 19:22:00,
2013-11-04 10:33:00,31.0,30.0,-100.00,SSW,195,0.0,1.0,97,0.00,,,0.00,,2013-11-04 19:33:00,
2013-11-04 10:42:00,31.0,30.0,-100.00,SSW,195,0.0,1.0,97,0.00,,,0.00,,2013-11-04 19:42:00,
2013-11-04 10:52:00,31.0,30.0,-100.00,ESE,105,0.0,0.0,97,0.00,,,0.00,,2013-11-04 19:52:00,
2013-11-04 11:01:00,31.0,30.0,-100.00,ESE,105,0.0,0.0,97,0.00,,,0.00,,2013-11-04 20:01:00,
2013-11-04 11:11:00,31.0,30.0,-100.00,ESE,105,0.0,0.0,97,0.00,,,0.00,,2013-11-04 20:11:00,
2013-11-04 11:22:00,31.0,31.0,-100.00,East,90,0.0,0.0,97,0.00,,,0.00,,2013-11-04 20:22:00,
2013-11-04 11:32:00,31.0,31.0,-100.00,East,90,0.0,0.0,97,0.00,,,0.00,,2013-11-04 20:32:00,
2013-11-04 11:42:00,31.0,31.0,-100.00,East,90,0.0,0.0,97,0.00,,,0.00,,2013-11-04 20:42:00,
2013-11-04 11:52:00,32.0,31.0,-100.00,South,180,0.0,1.0,97,0.02,,,0.02,,2013-11-04 20:52:00,
2013-11-04 12:03:00,32.0,31.0,-100.00,South,180,0.0,1.0,97,0.02,,,0.02,,2013-11-04 21:03:00,
2013-11-04 12:12:00,32.0,31.0,-100.00,South,180,0.0,1.0,97,0.02,,,0.02,,2013-11-04 21:12:00,
2013-11-04 12:21:00,32.0,31.0,-100.00,SSW,200,0.0,1.0,97,0.02,,,0.02,,2013-11-04 21:21:00,
2013-11-04 12:34:00,32.0,31.0,-100.00,SSW,200,0.0,1.0,97,0.02,,,0.02,,2013-11-04 21:34:00,
2013-11-04 12:44:00,32.0,31.0,-100.00,SSW,200,0.0,1.0,97,0.02,,,0.02,,2013-11-04 21:44:00,
2013-11-04 12:54:00,32.0,32.0,-100.00,South,190,1.0,2.0,97,0.00,,,0.02,,2013-11-04 21:54:00,
2013-11-04 13:04:00,32.0,32.0,-100.00,South,190,1.0,2.0,97,0.00,,,0.02,,2013-11-04 22:04:00,
2013-11-04 13:13:00,32.0,32.0,-100.00,South,190,1.0,2.0,97,0.00,,,0.02,,2013-11-04 22:13:00,
2013-11-04 13:23:00,32.0,31.0,-100.00,South,180,1.0,2.0,97,0.00,,,0.02,,2013-11-04 22:23:00,
2013-11-04 13:33:00,32.0,31.0,-100.00,South,180,1.0,2.0,97,0.00,,,0.02,,2013-11-04 22:33:00,
2013-11-04 13:43:00,32.0,31.0,-100.00,South,180,1.0,2.0,97,0.00,,,0.02,,2013-11-04 22:43:00,
2013-11-04 13:53:00,32.0,32.0,-100.00,SSE,165,0.0,1.0,98,0.02,,,0.04,,2013-11-04 22:53:00,
2013-11-04 14:02:00,32.0,32.0,-100.00,SSE,165,0.0,1.0,98,0.02,,,0.04,,2013-11-04 23:02:00,
2013-11-04 14:12:00,32.0,32.0,-100.00,SSE,165,0.0,1.0,98,0.02,,,0.04,,2013-11-04 23:12:00,
2013-11-04 14:22:00,32.0,32.0,-100.00,West,260,0.0,1.0,98,0.05,,,0.07,,2013-11-04 23:22:00,
2013-11-04 14:33:00,32.0,32.0,-100.00,West,260,0.0,1.0,98,0.05,,,0.07,,2013-11-04 23:33:00,
2013-11-04 14:43:00,32.0,32.0,-100.00,West,260,0.0,1.0,98,0.05,,,0.07,,2013-11-04 23:43:00,
2013-11-04 14:53:00,33.0,32.0,-100.00,North,5,1.0,1.0,98,0.03,,,0.07,,2013-11-04 23:53:00,
2013-11-04 15:02:00,33.0,32.0,-100.00,North,5,1.0,1.0,98,0.03,,,0.07,,2013-11-05 00:02:00,
2013-11-04 15:12:00,33.0,32.0,-100.00,North,5,1.0,1.0,98,0.03,,,0.07,,2013-11-05 00:12:00,
2013-11-04 15:22:00,33.0,32.0,-100.00,SW,225,1.0,1.0,98,0.00,,,0.07,,2013-11-05 00:22:00,
2013-11-04 15:32:00,33.0,32.0,-100.00,SW,225,1.0,1.0,98,0.00,,,0.07,,2013-11-05 00:32:00,
2013-11-04 15:42:00,33.0,32.0,-100.00,SW,225,1.0,1.0,98,0.00,,,0.07,,2013-11-05 00:42:00,
2013-11-04 15:52:00,32.0,32.0,-100.00,NE,40,1.0,2.0,98,0.00,,,0.07,,2013-11-05 00:52:00,
2013-11-04 16:02:00,32.0,32.0,-100.00,NE,40,1.0,2.0,98,0.00,,,0.07,,2013-11-05 01:02:00,
2013-11-04 16:11:00,32.0,32.0,-100.00,NE,40,1.0,2.0,98,0.00,,,0.07,,2013-11-05 01:11:00,
2013-11-04 16:21:00,32.0,32.0,-100.00,NW,305,0.0,1.0,98,0.00,,,0.07,,2013-11-05 01:21:00,
2013-11-04 16:32:00,32.0,32.0,-100.00,NW,305,0.0,1.0,98,0.00,,,0.07,,2013-11-05 01:32:00,
2013-11-04 16:42:00,32.0,32.0,-100.00,NW,305,0.0,1.0,98,0.00,,,0.07,,2013-11-05 01:42:00,
2013-11-04 16:52:00,32.0,32.0,-100.00,West,275,0.0,1.0,98,0.00,,,0.07,,2013-11-05 01:52:00,
2013-11-04 17:01:00,32.0,32.0,-100.00,West,275,0.0,1.0,98,0.00,,,0.07,,2013-11-05 02:01:00,
2013-11-04 17:11:00,32.0,32.0,-100.00,West,275,0.0,1.0,98,0.00,,,0.07,,2013-11-05 02:11:00,
2013-11-04 17:22:00,32.0,32.0,-100.00,NNW,330,0.0,1.0,98,0.00,,,0.07,,2013-11-05 02:22:00,
2013-11-04 17:32:00,32.0,32.0,-100.00,NNW,330,0.0,1.0,98,0.00,,,0.07,,2013-11-05 02:32:00,
2013-11-04 17:42:00,32.0,32.0,-100.00,NNW,330,0.0,1.0,98,0.00,,,0.07,,2013-11-05 02:42:00,
2013-11-04 17:52:00,32.0,32.0,-100.00,North,10,0.0,1.0,98,0.00,,,0.07,,2013-11-05 02:52:00,
2013-11-04 18:02:00,32.0,32.0,-100.00,North,10,0.0,1.0,98,0.00,,,0.07,,2013-11-05 03:02:00,
2013-11-04 18:11:00,32.0,32.0,-100.00,North,10,0.0,1.0,98,0.00,,,0.07,,2013-11-05 03:11:00,
2013-11-04 18:22:00,32.0,32.0,-100.00,North,5,0.0,1.0,98,0.02,,,0.09,,2013-11-05 03:22:00,
2013-11-04 18:33:00,32.0,32.0,-100.00,North,5,0.0,1.0,98,0.02,,,0.09,,2013-11-05 03:33:00,
2013-11-04 18:44:00,32.0,32.0,-100.00,North,5,0.0,1.0,98,0.02,,,0.09,,2013-11-05 03:44:00,
2013-11-04 18:54:00,32.0,32.0,-100.00,WNW,295,0.0,1.0,98,0.02,,,0.11,,2013-11-05 03:54:00,
2013-11-04 19:03:00,32.0,32.0,-100.00,WNW,295,0.0,1.0,98,0.02,,,0.11,,2013-11-05 04:03:00,
2013-11-04 19:13:00,32.0,32.0,-100.00,WNW,295,0.0,1.0,98,0.02,,,0.11,,2013-11-05 04:13:00,
2013-11-04 19:23:00,32.0,32.0,-100.00,NNE,30,0.0,1.0,98,0.02,,,0.11,,2013-11-05 04:23:00,
2013-11-04 19:34:00,32.0,32.0,-100.00,NNE,30,0.0,1.0,98,0.02,,,0.11,,2013-11-05 04:34:00,
2013-11-04 19:43:00,32.0,32.0,-100.00,NNE,30,0.0,1.0,98,0.02,,,0.11,,2013-11-05 04:43:00,
2013-11-04 19:53:00,32.0,32.0,-100.00,NNW,345,0.0,2.0,98,0.01,,,0.12,,2013-11-05 04:53:00,
2013-11-04 20:03:00,32.0,32.0,-100.00,NNW,345,0.0,2.0,98,0.01,,,0.12,,2013-11-05 05:03:00,
2013-11-04 20:13:00,32.0,32.0,-100.00,NNW,345,0.0,2.0,98,0.01,,,0.12,,2013-11-05 05:13:00,
2013-11-04 20:23:00,32.0,32.0,-100.00,WSW,240,1.0,2.0,98,0.01,,,0.12,,2013-11-05 05:23:00,
2013-11-04 20:34:00,32.0,32.0,-100.00,WSW,240,1.0,2.0,98,0.01,,,0.12,,2013-11-05 05:34:00,
2013-11-04 20:43:00,32.0,32.0,-100.00,WSW,240,1.0,2.0,98,0.01,,,0.12,,2013-11-05 05:43:00,
2013-11-04 20:53:00,32.0,32.0,-100.00,NNE,15,1.0,1.0,98,0.00,,,0.12,,2013-11-05 05:53:00,
2013-11-04 21:03:00,32.0,32.0,-100.00,NNE,15,1.0,1.0,98,0.00,,,0.12,,2013-11-05 06:03:00,
2013-11-04 21:12:00,32.0,32.0,-100.00,NNE,15,1.0,1.0,98,0.00,,,0.12,,2013-11-05 06:12:00,
2013-11-04 21:21:00,32.0,32.0,-100.00,SE,145,0.0,1.0,98,0.00,,,0.12,,2013-11-05 06:21:00,
2013-11-04 21:32:00,32.0,32.0,-100.00,SE,145,0.0,1.0,98,0.00,,,0.12,,2013-11-05 06:32:00,
2013-11-04 21:42:00,32.0,32.0,-100.00,SE,145,0.0,1.0,98,0.00,,,0.12,,2013-11-05 06:42:00,
2013-11-04 21:52:00,32.0,32.0,-100.00,North,355,0.0,2.0,98,0.00,,,0.12,,2013-11-05 06:52:00,
2013-11-04 22:02:00,32.0,32.0,-100.00,North,355,0.0,2.0,98,0.00,,,0.12,,2013-11-05 07:02:00,
2013-11-04 22:11:00,32.0,32.0,-100.00,North,355,0.0,2.0,98,0.00,,,0.12,,2013-11-05 07:11:00,
2013-11-04 22:22:00,32.0,32.0,-100.00,NW,320,0.0,1.0,98,0.02,,,0.14,,2013-11-05 07:22:00,
2013-11-04 22:32:00,32.0,32.0,-100.00,NW,320,0.0,1.0,98,0.02,,,0.14,,2013-11-05 07:32:00,
2013-11-04 22:42:00,32.0,32.0,-100.00,NW,320,0.0,1.0,98,0.02,,,0.14,,2013-11-05 07:42:00,
2013-11-04 22:52:00,32.0,32.0,-100.00,NE,35,0.0,1.0,98,0.02,,,0.14,,2013-11-05 07:52:00,
2013-11-04 23:02:00,32.0,32.0,-100.00,NE,35,0.0,1.0,98,0.02,,,0.14,,2013-11-05 08:02:00,
2013-11-04 23:11:00,32.0,32.0,-100.00,NE,35,0.0,1.0,98,0.02,,,0.14,,2013-11-05 08:11:00,
2013-11-04 23:22:00,32.0,32.0,-100.00,North,0,0.0,0.0,98,0.02,,,0.16,,2013-11-05 08:22:00,
2013-11-04 23:32:00,32.0,32.0,-100.00,North,0,0.0,0.0,98,0.02,,,0.16,,2013-11-05 08:32:00,
2013-11-04 23:42:00,32.0,32.0,-100.00,North,0,0.0,0.0,98,0.02,,,0.16,,2013-11-05 08:42:00,
2013-11-04 23:52:00,32.0,32.0,-100.00,NW,315,0.0,0.0,98,0.02,,,0.16,,2013-11-05 08:52:00,